Location: Palomar Mountain Lodge
(33.3110°N, 116.8495°W)
Time: 03:45:06
(UTC-07:00)

Cosmos 1844 Rocket - Pass Details

Date: 14 June 2018
Orbit: 824 x 845 km, 71.0° (Epoch: 21 October)

Event Time Altitude Azimuth Distance (km) Brightness Sun altitude
Exits shadow 23:14:20 74° 292° (WNW) 874 2.7 -29.2°
Drops below altitude 10° 23:19:58 10° 17° (NNE) 2,459 5.7 -29.6°
Sets 23:22:26 0° 19° (NNE) 3,394 6.5 -29.8°
